一网星座-0232星 (ONEWEB-0232 )

导读 | 星芒AI

ONEWEB-0232 是 OneWeb 卫星星座计划中的一颗低轨通信卫星,旨在为全球提供高速互联网服务。该卫星于2023年发射,运行在约1200公里高的近地轨道,采用先进通信技术,支持宽带接入和远程通信。OneWeb 项目致力于填补数字鸿沟,特别是在偏远和农村地区。ONEWEB-0232 作为星座的一部分,与其他卫星协同工作,确保全球范围内的连续覆盖和稳定连接。

基本信息
目录编号:
48781
目录名称:
ONEWEB-0232
国际标识:
2021-045Q
轨道中心:
EARTH
卫星名称:
一网星座-0232星
卫星全名:
一网星座-0232星 (ONEWEB-0232 )
卫星状态:
在轨 (已飞行1662 天)
发射日期:
2021-05-28 UTC
国别 :
英国 (GB)
星等 :
--
轨道信息
数据来源 国际轨道数据 AOE轨道数据
星历时间 2025-12-15T02:47:12+0800
1天前
查看轨道信息
2025-12-15T15:00:00+0800
12小时前
查看轨道信息
半长轴 7579.908km 7579.918km
偏心率 0.0001865 0.0001834
轨道倾角 87.901° 87.901°
近地点辐角 77.553° 79.612°
升交点赤经 295.957° 295.856°
平近点角 282.580° 169.219°
近地点 1200.359km 1200.392km
远地点 1203.187km 1203.174km
周期 109.460分钟 109.460分钟
每日圈数 13.155486 13.15546
详细信息
平衡模式:
三轴稳定
覆盖范围:
全球
运营商:
一网卫星公司
运营商所在国:
英国
制造商(研发单位):
一网卫星公司
制造商所在国:
英国
使用方式:
暂无
卫星简介
OneWeb卫星网络由648颗重约125公斤的微型卫星组成,运行在1200公里的轨道上。 每颗卫星都能够提供至少每秒8千兆位的吞吐量,以使用其高吞吐量的Ku频段有效载荷为家庭和移动平台提供互联网接入。该卫星仍在工作。
2D轨道图
3D轨道图
轨道高度分析图
轨道倾角分析图
轨道综合分析图
查看轨道综合分析图